{"data":{"norad_id":65047,"epoch":"2026-09-21T12:18:37.449216Z","epoch_age_seconds":81040,"freshness":"FRESH","line1":"1 65047U 25162E   26264.51293344 -.00000083  00000+0  89023-4 0  9996","line2":"2 65047  50.0010 280.2064 0001131 214.7175 145.3624 13.29322321 56188","mean_motion":13.29322321,"eccentricity":0.0001131,"inclination_deg":50.001,"raan_deg":280.2064,"arg_perigee_deg":214.7175,"mean_anomaly_deg":145.3624,"bstar":8.9023e-5,"rev_number":5618,"period_min":108.32587230738,"perigee_km":1148.4691049213,"apogee_km":1150.1718157988,"semimajor_km":7527.4574603601,"source":"CELESTRAK","updated_at":"2026-09-22T09:00:30.090947Z"}}